Temp
62 62 62 62 62 62 63 63 63 63 63 63 63 63 63 62 63 80 92 97 96 80 82 101 103 104 104 101 105 105 85 85 88 89 89 96 93 97 100 94 94 96 94 95 97
62 62 62 62 62 62 62 62 63 63 63 63 62 62 63 62 83 93 93 82 81 81 97 99 97 101 98 99 102 96 70 86 98 95 94 95 95 95 93 91 90 92 98 97 96
61 61 61 61 61 62 62 62 62 62 62 62 62 62 63 67 87 98 81 81 80 84 104 106 105 102 96 101 100 99 85 97 98 100 100 96 96 98 93 88 92 90 91 93 94
61 61 60 61 61 61 61 61 61 61 61 61 62 62 63 82 79 100 81 81 81 99 101 102 101 96 93 94 102 93 93 99 99 100 100 96 100 94 94 96 99 97 95 94 92
60 60 60 60 60 60 61 60 60 60 60 61 62 63 73 86 90 100 82 84 95 97 98 99 97 97 92 97 100 96 98 100 101 101 101 101 96 95 95 99 101 99 95 93 94
60 60 60 60 60 60 60 60 59 59 60 61 62 62 78 80 107 106 104 101 102 99 99 101 99 102 98 97 98 101 100 99 100 101 100 96 96 96 96 100 98 96 94 95 95
59 59 59 59 60 60 59 59 58 59 60 62 63 71 83 88 107 108 105 104 106 104 99 103 105 101 101 96 103 101 93 97 98 99 97 99 91 91 98 98 95 94 94 95 96
59 59 59 59 59 59 58 57 58 60 62 64 64 77 82 106 109 105 106 103 107 107 104 107 107 102 100 103 100 95 95 88 97 98 98 96 84 94 99 97 94 94 94 94 95
58 58 58 58 58 58 57 57 58 63 65 65 75 83 84 90 97 104 105 99 103 104 104 106 104 97 98 92 90 92 84 87 90 98 96 93 73 95 99 97 94 94 95 94 94
58 58 58 58 57 56 56 57 67 64 69 81 85 81 90 93 101 103 106 104 99 99 96 95 95 90 91 89 78 83 85 89 87 94 94 90 85 95 97 97 96 95 95 94 94
58 57 57 57 56 56 62 90 80 76 81 86 90 90 95 103 104 99 103 100 99 94 86 92 86 81 88 91 92 92 90 88 93 97 92 89 90 92 96 96 96 96 94 95 95
58 57 57 56 56 55 65 85 81 82 75 90 92 93 99 104 92 97 103 92 91 84 90 87 81 91 94 94 92 91 89 89 94 96 93 91 89 94 95 94 96 96 96 95 96
57 57 56 55 56 66 84 84 89 90 76 86 94 93 95 98 91 94 98 94 89 85 87 85 88 94 92 91 89 90 88 89 89 94 95 90 85 90 96 97 97 98 100 99 97
57 57 56 54 64 80 83 87 91 90 70 82 87 92 96 96 87 100 103 95 91 85 88 88 95 90 89 88 91 84 94 93 92 79 77 92 76 86 93 93 95 96 98 100 99
57 56 55 54 66 76 84 90 90 85 60 88 89 101 97 89 93 92 102 96 86 87 89 85 88 88 85 88 93 87 96 92 92 89 84 84 80 83 92 90 94 97 99 100 102
56 56 55 69 74 80 86 87 85 67 60 82 89 85 85 89 92 94 92 98 96 89 90 89 97 93 92 94 94 96 92 92 92 89 73 84 77 83 82 91 95 99 100 100 102
55 54 56 67 73 87 85 80 67 61 83 80 83 87 85 84 86 87 84 84 81 74 77 85 87 94 95 88 93 91 87 75 72 73 72 86 81 78 95 97 99 99 102 103 103
53 53 64 76 81 81 76 69 56 73 76 88 87 87 81 88 87 86 83 81 86 86 82 76 73 87 93 89 85 87 87 76 63 69 76 87 77 85 99 102 104 104 106 106 103
53 74 76 82 82 79 70 60 64 72 84 83 85 80 81 86 87 85 83 82 86 88 78 78 77 92 92 93 92 87 82 92 82 84 78 83 87 93 98 99 100 101 103 104 104
60 67 75 84 80 73 63 57 71 80 86 84 75 82 77 81 81 82 82 87 86 90 93 85 76 89 91 94 92 89 94 81 84 68 67 78 80 82 89 91 97 99 101 104 106
61 66 76 82 78 65 56 63 70 78 81 79 77 78 81 81 83 81 82 88 91 90 92 89 83 82 89 84 82 84 85 86 87 82 72 70 78 95 92 94 95 99 102 105 106
65 59 78 80 62 65 61 66 66 75 82 79 80 79 79 82 81 82 81 86 94 93 85 89 84 75 81 91 93 90 85 86 80 72 80 79 80 99 99 99 100 101 104 106 107
59 64 80 76 55 61 67 68 73 72 74 76 76 79 81 78 74 81 83 92 91 90 86 88 79 72 74 85 89 83 86 90 89 87 76 74 78 98 99 99 100 100 102 104 106
56 55 66 69 68 62 61 62 62 73 73 74 74 78 76 74 80 76 80 88 90 89 75 84 83 75 72 75 84 79 82 86 87 79 79 79 82 91 94 95 98 99 102 104 104
55 56 63 54 58 56 53 58 54 52 63 69 69 71 72 68 72 74 79 84 88 82 84 85 74 80 82 84 85 84 82 83 81 83 78 82 83 89 94 96 98 100 101 101 101
46 51 57 55 59 55 54 55 56 58 57 54 58 59 68 68 71 69 77 79 79 85 82 85 73 78 76 83 83 81 85 84 84 84 84 85 84 96 98 100 98 99 100 99 101
55 55 53 50 54 53 53 52 52 56 58 61 52 52 60 66 69 73 81 86 84 81 79 78 77 72 68 79 79 72 80 83 85 87 85 78 85 93 93 95 97 97 99 99 100
MSLP
1018.16 1017.60 1017.09 1016.55 1015.99 1015.46 1015.02 1014.56 1014.07 1013.58 1013.19 1012.74 1012.33 1011.80 1011.08 1010.53 1009.45 1008.94 1006.12 1004.31 1004.47 1005.08 1005.50 1004.60 1004.03 1003.32 1002.96 1001.88 1000.43 999.99 999.56 997.85 998.15 998.26 999.83 1001.17 1001.36 1002.29 1002.81 1003.94 1004.60 1004.80 1005.86 1007.48 1008.72
1018.36 1017.80 1017.18 1016.63 1016.10 1015.50 1014.92 1014.49 1014.01 1013.55 1013.05 1012.55 1012.17 1011.77 1011.02 1010.53 1008.52 1005.70 1004.04 1004.09 1004.43 1005.06 1004.80 1003.51 1002.97 1002.59 1001.89 1000.97 999.70 999.71 1000.69 998.34 997.85 998.72 999.08 1000.62 1001.03 1002.00 1002.89 1003.91 1004.54 1005.30 1005.89 1007.85 1008.93
1018.51 1017.94 1017.32 1016.65 1016.06 1015.48 1014.89 1014.32 1013.84 1013.39 1013.02 1012.50 1011.98 1011.64 1011.03 1010.39 1006.97 1003.02 1004.03 1004.24 1004.59 1004.92 1003.63 1002.75 1002.12 1001.77 1000.99 999.97 999.33 998.50 999.81 997.89 998.18 998.55 998.97 1000.20 1000.63 1001.72 1002.07 1003.23 1004.15 1005.13 1006.50 1007.91 1008.74
1018.57 1018.03 1017.47 1016.75 1016.05 1015.41 1014.78 1014.15 1013.55 1013.08 1012.70 1012.36 1011.86 1011.43 1010.87 1009.13 1004.80 1003.08 1004.03 1004.31 1004.53 1004.22 1003.63 1002.29 1001.68 1001.07 1000.45 999.41 998.87 998.29 998.73 998.08 998.04 998.86 998.58 999.56 1000.15 1001.27 1002.07 1001.98 1003.74 1005.05 1006.48 1007.69 1008.41
1018.58 1018.01 1017.40 1016.75 1016.05 1015.29 1014.65 1013.98 1013.33 1012.68 1012.30 1011.96 1011.70 1011.37 1010.31 1006.97 1003.53 1002.92 1003.60 1004.31 1004.37 1004.08 1002.91 1001.81 1001.07 1000.33 999.81 998.96 998.33 998.03 997.61 997.75 998.00 998.51 998.48 998.96 999.95 1000.81 1001.85 1002.59 1003.72 1004.94 1006.37 1007.32 1007.90
1018.52 1017.88 1017.20 1016.45 1015.69 1014.93 1014.23 1013.60 1012.95 1012.24 1011.69 1011.39 1011.30 1011.32 1009.26 1004.97 1001.80 1001.88 1002.47 1003.03 1002.62 1002.98 1002.15 1001.68 1000.62 1000.12 999.53 998.73 997.83 997.60 997.57 997.53 997.79 997.80 998.59 998.83 999.71 1001.07 1001.71 1002.84 1003.68 1004.91 1005.99 1006.80 1007.36
1018.43 1017.86 1017.14 1016.28 1015.37 1014.53 1013.65 1013.01 1012.39 1011.63 1010.98 1010.60 1010.58 1010.36 1007.03 1003.05 1001.21 1001.32 1001.93 1001.79 1001.54 1001.62 1001.34 1001.10 1000.74 1000.06 999.53 998.50 997.90 997.58 997.73 997.51 997.76 997.77 998.37 998.93 999.44 1000.42 1001.22 1002.66 1003.55 1004.59 1005.50 1006.18 1006.81
1018.33 1017.59 1016.84 1015.91 1015.08 1014.28 1013.38 1012.27 1011.62 1010.91 1010.26 1009.92 1009.98 1009.02 1004.59 1000.78 1000.88 1000.93 1001.28 1001.18 1001.14 1001.13 1000.96 1000.48 1000.62 999.98 999.17 998.55 997.54 997.48 997.28 996.39 996.61 997.52 998.17 998.86 998.43 999.80 1000.89 1002.13 1002.91 1004.06 1004.94 1005.72 1006.37
1018.32 1017.52 1016.76 1015.53 1014.41 1013.36 1012.71 1011.68 1010.80 1010.23 1009.75 1009.68 1008.89 1006.78 1002.36 1001.13 1000.75 1000.40 1000.53 1000.39 1000.35 1000.57 1000.67 1000.51 1000.21 999.87 999.39 998.31 997.22 996.89 996.08 995.87 996.24 997.15 997.95 998.55 999.97 999.42 1000.54 1001.41 1002.14 1003.37 1004.24 1005.09 1005.90
1018.30 1017.37 1016.60 1015.46 1014.39 1013.17 1011.88 1010.25 1009.84 1009.96 1009.44 1008.36 1006.88 1005.16 1001.09 999.23 999.07 999.25 999.52 999.77 999.75 1000.02 1000.28 1000.30 999.76 999.20 998.64 997.59 996.06 995.59 995.62 994.82 995.17 996.68 997.60 998.15 998.80 998.84 1000.10 1000.70 1001.41 1002.51 1003.47 1004.41 1005.13
1018.06 1017.33 1016.33 1015.31 1014.11 1012.96 1011.64 1008.43 1009.12 1008.31 1006.64 1003.76 1001.79 1000.30 998.78 998.31 999.09 999.25 999.17 999.34 999.34 999.40 998.86 998.99 998.56 997.25 997.11 996.75 996.31 995.09 994.54 994.30 994.43 995.46 997.03 997.57 997.77 998.50 999.56 1000.17 1000.59 1001.47 1002.64 1003.47 1004.26
1017.88 1017.20 1016.09 1014.92 1013.65 1012.58 1011.81 1008.16 1007.86 1007.83 1004.76 1002.26 1000.68 999.63 998.74 997.97 997.96 998.25 998.80 998.72 998.42 998.11 998.23 998.05 996.91 996.82 996.95 996.59 996.12 994.98 994.08 993.82 994.09 994.88 996.20 996.71 996.91 997.40 998.60 999.49 999.98 1000.38 1001.38 1002.41 1003.26
1017.77 1017.19 1016.29 1014.57 1012.79 1011.35 1009.38 1007.84 1007.70 1007.18 1004.49 999.52 997.83 997.40 997.35 998.03 997.36 996.99 997.82 997.87 997.42 997.33 996.84 995.85 995.90 996.45 996.06 995.73 995.41 994.86 993.84 993.39 993.67 994.40 995.70 996.10 996.46 996.44 997.20 998.41 999.22 999.73 1000.13 1001.06 1001.94
1017.64 1016.96 1016.46 1015.07 1012.46 1010.26 1008.07 1007.97 1007.51 1007.17 1003.50 997.45 996.14 995.64 996.13 996.81 996.50 996.63 996.52 997.06 996.55 996.12 996.05 995.64 995.27 995.36 995.43 995.03 994.85 994.20 994.36 993.76 993.63 995.01 995.42 995.80 994.86 995.13 995.94 996.75 997.78 998.65 999.14 999.64 1000.60
1017.35 1016.68 1016.27 1016.04 1013.73 1010.12 1008.24 1008.13 1007.73 1006.84 1001.04 995.02 994.91 994.96 995.31 995.64 994.42 995.07 995.73 996.17 995.61 995.54 995.48 994.52 994.61 994.40 994.47 994.07 994.41 994.12 994.10 994.10 993.74 993.60 994.19 994.54 994.80 993.49 994.65 994.89 995.82 996.95 997.69 998.49 999.15
1016.97 1016.39 1015.91 1013.18 1012.27 1009.88 1009.01 1008.37 1007.20 1004.74 997.55 994.13 994.12 994.55 994.64 994.60 994.09 994.65 995.30 995.62 995.70 995.15 994.86 994.14 994.44 994.23 993.82 994.31 994.34 994.55 994.17 993.90 993.95 993.66 993.49 993.53 994.34 992.82 994.89 993.49 994.06 994.88 996.05 997.15 998.00
1016.37 1015.54 1015.38 1014.22 1010.41 1008.86 1008.93 1007.69 1005.06 1000.15 995.48 993.37 993.00 993.28 993.35 992.98 993.51 993.99 994.48 994.34 994.16 994.30 993.70 993.93 993.38 993.68 993.75 994.12 994.18 994.48 993.97 993.29 993.01 992.60 992.46 993.23 992.71 994.39 991.75 992.36 993.16 993.53 994.11 995.14 996.67
1015.67 1014.48 1012.30 1011.01 1010.15 1009.88 1009.35 1006.82 1001.75 996.31 994.63 992.60 992.31 992.19 992.06 991.65 991.86 992.52 993.16 993.12 993.57 993.13 992.62 992.53 992.47 992.58 993.09 993.06 993.06 993.13 992.88 992.09 991.80 991.75 991.87 991.95 990.93 990.85 991.30 991.59 992.07 992.62 992.88 993.47 995.13
1015.16 1011.63 1009.71 1008.65 1009.20 1009.63 1008.07 1003.61 997.91 996.55 993.77 992.91 992.23 991.43 990.96 990.81 990.92 991.09 991.44 991.68 991.84 992.18 991.71 991.08 991.38 992.08 992.53 993.07 993.21 992.22 991.86 992.21 991.94 991.61 991.24 990.52 990.47 990.90 990.98 991.17 991.97 992.53 992.72 992.96 993.76
1014.86 1011.47 1008.03 1007.74 1009.03 1008.95 1006.48 1000.48 997.99 996.72 994.35 993.33 991.77 991.34 990.32 990.12 990.06 990.33 989.96 990.37 990.67 991.20 991.35 990.82 990.66 991.05 991.52 992.65 992.54 991.76 991.88 991.72 990.96 990.23 989.60 989.58 989.33 989.38 990.04 991.21 991.68 991.92 992.18 992.28 992.98
1013.98 1009.86 1007.72 1008.20 1008.51 1007.55 1003.62 1000.40 999.38 997.76 996.12 994.56 993.05 991.44 990.49 989.64 989.27 989.33 989.18 989.33 989.73 990.00 990.84 990.95 990.61 990.41 991.00 990.41 990.80 991.53 990.56 990.43 990.96 990.63 989.57 989.06 988.34 988.65 989.30 990.38 991.02 991.41 991.60 991.50 992.06
1012.74 1008.94 1007.16 1007.99 1007.01 1004.99 1002.81 1001.31 1000.09 997.66 996.08 995.16 994.16 992.61 991.16 990.11 989.03 988.58 988.48 988.50 988.62 989.32 989.30 990.30 990.37 990.06 989.52 990.12 990.84 990.92 990.40 990.43 989.68 990.16 989.87 989.06 987.71 987.90 988.65 989.52 990.28 990.32 990.33 990.64 991.15
1012.12 1008.70 1006.51 1006.78 1005.42 1003.49 1002.29 1000.82 999.33 998.29 996.93 995.46 994.35 993.86 992.89 991.18 989.67 988.66 988.37 988.47 988.96 989.16 988.71 989.73 989.84 989.64 990.01 989.58 989.75 989.79 989.60 989.47 989.63 989.73 988.76 988.82 988.08 988.40 988.79 988.91 989.67 990.27 990.47 990.61 990.87
1013.42 1008.63 1005.94 1005.55 1005.21 1003.97 1002.69 1001.18 999.69 998.94 997.71 996.72 995.85 994.67 993.70 992.48 991.18 989.75 989.04 988.65 989.33 990.05 989.91 989.53 989.36 989.03 988.15 988.55 988.79 989.18 989.65 989.59 989.13 988.43 988.49 988.08 988.60 988.26 988.31 988.97 989.56 990.10 990.32 990.26 990.67
1013.65 1009.78 1007.41 1006.23 1004.95 1004.90 1005.10 1003.21 1001.78 1001.63 1000.37 998.74 997.35 995.77 994.22 993.33 992.31 990.74 989.83 989.31 989.10 990.34 990.58 989.92 989.26 988.96 988.96 988.67 988.60 988.29 988.89 989.13 988.75 988.41 988.32 988.03 988.01 988.20 988.23 988.66 989.02 989.78 990.10 990.44 990.72
1014.36 1011.52 1010.29 1008.64 1006.96 1006.12 1005.44 1004.16 1003.01 1002.16 1001.94 1001.29 999.52 998.34 995.95 994.11 992.92 991.70 990.39 989.52 988.75 990.23 990.24 990.03 989.55 989.51 988.86 988.99 988.78 987.98 987.86 988.28 988.66 988.65 988.17 988.31 987.54 987.89 988.20 988.26 988.58 988.80 989.48 989.74 990.03
1014.29 1013.20 1011.97 1009.94 1007.95 1006.57 1005.49 1005.16 1004.58 1003.56 1003.00 1002.16 1002.61 1001.62 998.65 996.83 995.25 993.56 991.31 989.82 989.78 989.48 989.69 989.58 989.73 989.99 989.15 989.23 988.88 988.34 987.71 987.40 987.43 987.79 988.33 988.19 988.06 988.63 988.03 987.82 987.93 988.44 988.97 989.40 989.79
Wind_Speed
20 21 21 21 22 22 21 21 22 22 21 21 19 18 19 19 20 9 13 7 7 18 9 13 16 14 15 16 19 13 10 7 8 8 14 11 12 7 11 13 9 4 18 21 21
21 21 22 22 22 22 22 21 21 21 22 21 20 19 19 17 16 21 4 10 16 16 13 17 16 16 14 15 15 10 8 4 9 10 17 11 11 11 12 14 12 9 21 22 21
22 22 22 23 23 23 22 22 22 22 21 21 21 19 18 20 19 8 9 13 15 17 19 17 15 16 17 16 15 15 4 7 12 9 18 12 11 11 10 12 15 14 21 23 19
22 22 23 23 24 24 23 23 23 23 21 20 19 18 18 11 8 12 11 10 12 19 20 17 20 19 19 17 14 17 23 4 7 7 7 13 14 10 6 13 17 16 20 22 21
22 22 23 24 25 25 24 23 23 24 22 19 17 15 12 11 18 13 14 11 13 16 20 18 22 19 20 18 16 14 12 4 4 9 10 16 13 11 10 8 15 18 21 22 20
22 22 22 23 24 25 24 24 23 25 23 19 14 10 9 20 15 14 10 13 13 16 19 20 19 18 18 21 16 12 13 7 4 9 9 9 16 10 15 10 15 18 20 21 20
23 22 22 23 25 26 27 25 27 25 23 17 10 10 13 20 5 6 12 14 12 15 19 21 22 19 20 20 18 14 9 12 9 10 11 11 16 15 19 13 16 18 18 20 19
24 24 24 25 26 25 26 28 27 24 17 8 10 10 11 7 11 17 14 15 13 13 17 17 19 23 20 20 19 18 17 16 15 14 11 17 16 17 18 17 16 17 17 18 20
22 23 24 27 29 29 28 28 26 15 5 6 11 10 17 5 12 15 16 18 16 14 15 14 16 23 18 20 17 16 17 20 16 16 13 17 16 18 17 17 16 16 17 18 18
21 24 24 27 28 29 32 29 7 5 9 10 10 9 12 15 11 10 11 15 15 14 14 19 15 20 19 19 18 21 21 20 18 17 13 15 5 18 16 17 17 17 16 18 19
22 23 26 28 29 30 21 3 8 10 15 16 6 13 9 7 8 12 12 17 17 17 18 21 19 24 26 25 24 23 21 18 15 25 19 17 14 13 15 16 16 19 17 19 20
23 23 26 28 31 30 13 10 7 9 15 20 26 27 23 14 12 15 16 18 19 18 21 18 24 24 25 26 25 29 23 17 13 21 20 18 19 18 17 14 16 17 20 20 20
23 23 25 31 34 16 11 7 5 13 11 17 26 25 25 23 23 19 20 22 21 23 24 22 22 25 26 26 27 27 26 18 18 19 17 16 18 19 17 20 16 16 17 21 21
23 24 23 30 15 15 7 6 8 9 9 14 10 11 17 17 20 25 22 23 18 23 24 25 20 25 27 28 27 25 25 24 19 16 15 19 16 22 19 21 20 19 19 20 23
23 24 21 17 15 9 8 10 10 7 9 12 14 15 17 20 10 24 26 26 24 22 20 24 21 25 30 29 28 24 25 23 22 19 20 23 18 11 21 20 19 21 21 21 21
23 23 22 15 11 14 13 9 8 10 15 9 12 15 19 22 13 12 24 26 21 22 23 25 21 27 21 26 24 23 25 24 24 18 16 22 18 20 17 18 19 22 22 21 22
23 24 20 13 11 6 9 9 10 14 3 12 17 20 22 22 22 16 24 29 26 25 24 23 28 23 22 23 25 28 25 17 19 19 19 25 20 25 17 18 18 19 20 23 22
24 29 14 11 12 12 8 11 20 12 29 3 15 20 24 22 22 21 21 24 31 26 18 20 23 30 20 27 27 30 28 19 25 17 19 25 23 21 19 10 15 16 14 20 22
30 11 11 10 6 9 11 20 16 21 17 19 14 19 24 23 18 23 25 25 28 30 26 22 25 22 27 27 29 29 30 26 27 24 21 20 19 22 6 18 18 13 17 14 22
13 15 13 7 6 9 14 29 22 33 17 17 25 19 23 25 21 22 24 24 27 31 28 21 17 23 27 24 26 33 23 28 23 28 26 24 22 16 19 16 17 19 16 14 15
11 7 8 4 7 10 18 24 28 36 33 25 24 26 26 24 27 24 23 21 25 27 27 25 19 15 24 31 30 21 28 24 25 24 21 20 18 20 18 18 20 22 22 17 18
9 9 9 5 10 10 18 27 25 30 27 28 25 30 26 27 25 26 27 22 22 24 31 26 17 17 21 22 26 27 29 32 19 27 20 23 18 14 16 14 12 16 16 20 16
8 12 12 7 11 15 22 29 27 28 29 30 28 31 26 29 23 23 16 23 8 17 24 23 21 18 19 20 23 30 31 30 30 22 25 23 18 20 7 13 21 18 16 14 9
9 9 7 11 12 18 20 21 22 20 21 22 26 28 29 30 26 22 24 20 14 15 6 11 22 26 18 22 17 28 28 31 29 24 20 25 25 22 21 15 9 9 16 12 8
7 11 11 11 13 10 15 23 12 19 24 23 26 30 28 29 27 28 25 22 19 17 20 17 21 23 27 26 23 23 26 27 33 28 29 23 29 27 24 24 19 20 16 16 17
6 7 8 14 17 18 18 21 19 19 13 21 25 28 22 27 26 26 24 25 20 22 23 20 17 19 20 24 26 24 24 30 27 29 28 29 30 22 26 24 18 17 18 20 15
6 10 8 9 17 14 13 19 28 16 8 22 10 14 23 19 20 21 20 22 21 22 23 23 17 19 21 20 17 23 25 24 23 28 26 28 27 26 27 25 23 20 20 19 19
Wind_Direction
353 350 347 346 343 341 339 336 334 332 331 328 328 326 322 321 303 217 251 267 169 162 227 193 220 220 235 243 248 252 302 271 128 139 121 152 124 144 86 129 153 130 132 141 143
350 348 345 343 341 338 334 333 330 328 327 325 325 324 318 323 291 273 225 131 142 166 206 202 207 211 223 229 241 236 298 284 40 156 127 155 146 137 159 146 144 146 120 139 156
348 346 343 339 337 334 331 328 325 324 323 321 320 320 316 313 277 261 126 139 156 182 230 210 220 213 229 231 226 247 152 340 121 4 126 151 145 146 164 165 156 148 143 153 163
348 345 342 338 334 331 328 325 321 320 317 315 314 316 315 274 281 110 132 155 177 194 233 214 228 212 233 236 231 253 165 244 75 123 178 163 133 151 173 157 148 149 154 161 170
346 343 339 335 331 327 324 321 318 314 311 307 306 309 292 239 251 155 144 159 183 215 216 224 223 222 228 237 231 222 272 170 245 159 253 148 139 144 162 138 144 140 157 170 177
343 341 337 331 327 324 321 318 314 310 305 299 290 289 247 259 263 132 202 166 206 206 216 223 229 230 241 248 244 214 231 278 230 173 178 197 146 161 140 155 145 151 167 176 182
340 337 334 328 324 322 319 316 313 308 301 289 255 228 258 249 266 190 192 209 222 207 223 219 231 230 233 257 245 263 230 208 220 177 162 225 156 198 147 167 157 166 175 179 185
336 335 331 325 321 319 316 313 310 304 292 264 201 210 259 263 240 235 219 230 225 231 235 227 225 244 250 232 247 224 227 245 157 166 149 224 177 180 150 176 166 175 179 184 188
332 330 330 324 323 321 317 309 302 286 277 177 188 230 257 131 218 226 213 225 210 219 216 238 228 227 241 243 240 216 229 228 148 174 153 225 177 167 160 185 177 179 181 188 189
334 330 329 323 320 318 317 297 288 239 218 217 269 243 240 223 184 172 209 218 192 196 199 210 213 214 226 217 224 216 219 218 170 171 180 212 168 149 167 191 184 183 184 190 193
335 331 328 324 321 317 321 254 214 190 221 245 244 231 131 182 132 207 182 203 197 194 201 194 206 210 212 218 231 232 210 231 208 162 194 196 228 158 175 201 197 186 190 192 201
332 333 329 324 318 315 288 294 38 333 291 261 253 255 260 257 221 216 179 198 203 206 204 184 215 214 220 220 225 242 243 221 208 158 193 201 205 182 180 199 208 202 190 203 199
328 331 330 324 317 291 315 312 345 335 266 273 234 234 226 228 235 232 190 206 201 208 204 212 206 216 213 222 222 231 245 235 218 163 180 230 217 204 189 187 207 217 210 199 209
324 326 332 329 288 339 290 9 306 323 274 259 201 223 219 204 230 224 204 208 222 218 219 226 214 203 223 222 221 226 234 252 232 128 241 209 245 194 200 202 194 211 215 211 202
320 321 325 314 304 283 4 324 320 259 275 110 139 128 175 192 116 193 218 210 220 211 219 216 219 217 212 220 223 229 225 234 248 230 220 201 229 209 203 200 196 206 209 215 206
317 314 322 299 230 259 292 286 257 233 237 190 153 186 176 207 220 140 201 208 226 229 224 237 210 230 218 224 224 231 238 234 234 250 237 231 204 237 168 210 192 200 201 209 211
312 304 300 280 256 11 321 264 228 231 135 202 185 186 200 195 213 179 192 202 208 214 218 222 229 216 234 220 216 224 227 227 229 219 240 226 205 240 221 191 210 211 205 195 203
307 303 272 248 234 253 247 223 236 242 225 110 205 199 204 220 196 185 202 207 211 214 217 213 212 226 204 223 219 216 221 225 223 227 228 236 230 212 218 231 194 204 228 192 189
307 292 283 251 217 233 234 224 226 234 271 232 231 235 208 218 223 204 207 214 208 215 222 211 225 212 213 215 230 211 222 226 236 228 235 228 221 239 242 214 230 253 251 214 184
311 293 265 243 178 224 233 237 239 252 253 255 238 225 230 208 211 240 201 215 217 208 226 234 238 213 204 218 223 241 215 222 229 238 236 226 237 220 201 222 245 232 246 233 223
273 281 98 190 210 233 240 245 242 260 272 263 260 245 237 231 214 213 234 212 213 210 214 232 240 228 213 201 215 217 236 222 232 238 246 245 233 224 197 204 221 227 232 221 206
295 270 126 216 238 232 247 254 265 268 263 248 262 265 255 249 242 242 218 234 204 216 205 215 227 219 228 224 210 233 226 233 229 221 245 259 250 216 211 182 226 222 222 206 211
279 290 269 200 256 247 248 257 253 259 260 257 249 244 256 262 249 246 226 245 198 224 221 198 223 224 224 226 214 216 234 227 235 228 229 239 237 251 213 210 206 223 253 255 239
284 283 261 200 253 266 277 282 284 287 271 278 268 264 240 253 255 246 240 232 181 227 30 254 217 225 219 226 222 214 220 240 237 233 235 237 245 239 238 221 234 235 251 238 214
261 271 316 289 270 323 318 303 298 298 300 294 261 253 251 238 239 239 237 233 227 195 245 238 227 230 226 255 227 221 218 228 240 237 239 243 233 236 240 234 215 210 231 238 237
276 303 319 292 290 287 282 271 266 274 280 300 293 334 278 254 235 242 232 225 225 213 219 220 227 240 232 233 241 252 226 210 226 247 251 250 254 244 242 248 243 229 232 234 243
272 288 274 282 285 286 262 272 300 338 270 249 37 310 296 350 339 317 290 231 228 228 201 212 217 214 229 238 238 240 246 251 242 219 227 243 254 256 257 255 247 230 239 248 250